K7AKT Weather Reports


time (UTC)temp
C
wind
direction
speed
KPH
gust
KPH
rain 1hr
cm
rain 24hr
cm
rain mn
cm
humidity
%
barometer
mb
20260505224020 23 315 4.8 12.9 0.00 0.00 0.00 30 1013.7
20260505223020 23 293 8.0 16.1 0.00 0.00 0.00 30 1013.7
20260505222019 23 270 6.4 12.9 0.00 0.00 0.00 31 1013.7
20260505221039 23 270 9.7 19.3 0.00 0.00 0.00 30 1013.8
20260505220018 22 315 4.8 11.3 0.00 0.00 0.00 31 1013.6
20260505215039 22 293 8.0 19.3 0.00 0.00 0.00 32 1013.7
20260505214019 22 293 6.4 14.5 0.00 0.00 0.00 32 1014.0
20260505213019 22 270 8.0 16.1 0.00 0.00 0.00 32 1014.0
20260505212019 22 270 6.4 14.5 0.00 0.00 0.00 32 1013.9
20260505211018 22 315 8.0 19.3 0.00 0.00 0.00 32 1014.2
20260505210019 22 293 8.0 19.3 0.00 0.00 0.00 34 1014.3
20260505205018 21 293 6.4 12.9 0.00 0.00 0.00 36 1013.8
20260505204038 21 293 6.4 16.1 0.00 0.00 0.00 34 1013.9
20260505203019 21 293 8.0 19.3 0.00 0.00 0.00 37 1013.9
20260505202017 21 293 8.0 16.1 0.00 0.00 0.00 34 1013.7
20260505201039 21 293 9.7 20.9 0.00 0.00 0.00 33 1014.0
20260505200019 21 293 8.0 17.7 0.00 0.00 0.00 34 1013.6
20260505195019 21 0 8.0 16.1 0.00 0.00 0.00 34 1013.9
20260505194019 21 293 9.7 17.7 0.00 0.00 0.00 33 1014.2
20260505193019 21 0 6.4 14.5 0.00 0.00 0.00 35 1013.9
20260505192019 21 315 6.4 16.1 0.00 0.00 0.00 35 1014.2
20260505191019 20 293 8.0 14.5 0.00 0.00 0.00 34 1013.9
20260505190019 21 270 8.0 14.5 0.00 0.00 0.00 33 1014.2
20260505185019 20 315 6.4 17.7 0.00 0.00 0.00 34 1014.2
20260505184018 21 270 6.4 14.5 0.00 0.00 0.00 37 1014.3
20260505183019 20 293 6.4 14.5 0.00 0.00 0.00 35 1014.4
20260505182019 20 293 6.4 12.9 0.00 0.00 0.00 38 1014.5
20260505181018 19 315 6.4 12.9 0.00 0.00 0.00 37 1014.2
20260505180019 19 315 4.8 14.5 0.00 0.00 0.00 39 1014.2
20260505175018 18 315 6.4 12.9 0.00 0.00 0.00 36 1014.2
20260505174018 18 315 4.8 12.9 0.00 0.00 0.00 38 1014.0
20260505173019 18 270 6.4 12.9 0.00 0.00 0.00 41 1014.0
20260505172019 18 293 6.4 12.9 0.00 0.00 0.00 41 1014.2
20260505171019 17 293 6.4 12.9 0.00 0.00 0.00 42 1014.1
20260505170039 17 293 4.8 11.3 0.00 0.00 0.00 42 1013.7
20260505165018 17 315 4.8 12.9 0.00 0.00 0.00 43 1014.1
20260505164019 16 315 4.8 12.9 0.00 0.00 0.00 41 1013.8
20260505163020 16 293 4.8 12.9 0.00 0.00 0.00 45 1013.8
20260505162018 15 293 4.8 11.3 0.00 0.00 0.00 50 1013.9
20260505161018 15 315 4.8 9.7 0.00 0.00 0.00 58 1013.7
20260505153039 11 248 1.6 6.4 0.00 0.00 0.00 76 1013.2
20260505152019 10 0.0 1.6 0.00 0.00 0.00 81 1012.9
20260505151020 9 0.0 3.2 0.00 0.00 0.00 84 1012.5
20260505125018 6 0.0 1.6 0.00 0.00 0.00 77 1011.6
20260505124038 7 0.0 0.0 0.00 0.00 0.00 75 1011.5
20260505123018 7 203 1.6 3.2 0.00 0.00 0.00 72 1011.6
20260505122018 8 338 1.6 4.8 0.00 0.00 0.00 71 1012.2
20260505121018 8 0.0 0.0 0.00 0.00 0.00 69 1012.3
20260505120019 10 0.0 0.0 0.00 0.00 0.00 67 1012.5
20260505115019 10 0.0 0.0 0.00 0.00 0.00 65 1012.2
20260505114018 11 0.0 3.2 0.00 0.00 0.00 62 1012.5
20260505113019 12 0.0 3.2 0.00 0.00 0.00 61 1012.7
20260505112018 12 338 1.6 4.8 0.00 0.00 0.00 60 1012.7
20260505111018 12 315 3.2 9.7 0.00 0.00 0.00 60 1012.9
20260505102019 13 293 4.8 12.9 0.00 0.00 0.00 53 1013.1
20260505101019 13 293 6.4 9.7 0.00 0.00 0.00 54 1013.5
20260505100018 13 293 3.2 6.4 0.00 0.00 0.00 53 1013.5
20260505095039 13 293 3.2 11.3 0.00 0.00 0.00 51 1013.2
20260505094018 13 315 3.2 8.0 0.00 0.00 0.00 48 1013.2
20260505093018 13 293 6.4 17.7 0.00 0.00 0.00 49 1013.5
20260505092018 13 293 4.8 14.5 0.00 0.00 0.00 51 1013.3
20260505091018 13 315 4.8 9.7 0.00 0.00 0.00 53 1013.1
20260505090038 13 293 4.8 9.7 0.00 0.00 0.00 55 1013.2
20260505085018 13 293 4.8 12.9 0.00 0.00 0.00 56 1013.6
20260505084018 13 315 4.8 12.9 0.00 0.00 0.00 57 1013.3
20260505083038 13 293 6.4 11.3 0.00 0.00 0.00 59 1013.4
20260505082018 13 293 4.8 8.0 0.00 0.00 0.00 60 1013.1
20260505081038 12 270 4.8 6.4 0.00 0.00 0.00 62 1013.0
20260505080018 12 270 3.2 8.0 0.00 0.00 0.00 62 1013.0
20260505075018 13 270 1.6 6.4 0.00 0.00 0.00 61 1012.9
20260505074018 13 270 1.6 6.4 0.00 0.00 0.00 60 1012.9
20260505073018 13 293 3.2 8.0 0.00 0.00 0.00 59 1013.1
20260505072018 13 293 4.8 9.7 0.00 0.00 0.00 59 1012.9
20260505071019 14 270 4.8 9.7 0.00 0.00 0.00 61 1013.3
20260505070018 14 270 4.8 11.3 0.00 0.00 0.00 63 1013.2
20260505065018 14 315 3.2 8.0 0.00 0.00 0.00 62 1012.9
20260505064038 15 315 4.8 9.7 0.00 0.00 0.00 63 1012.8
20260505063038 15 315 6.4 11.3 0.00 0.00 0.00 62 1012.6
20260505062019 15 293 4.8 14.5 0.00 0.00 0.00 63 1012.5
20260505061018 15 338 4.8 12.9 0.00 0.00 0.00 63 1012.3
20260505060018 15 315 8.0 14.5 0.00 0.00 0.00 62 1012.5
20260505055018 15 293 6.4 16.1 0.00 0.00 0.00 62 1012.3
20260505054039 15 315 6.4 16.1 0.00 0.00 0.00 62 1012.2
20260505053038 16 315 8.0 17.7 0.00 0.00 0.00 62 1012.1
20260505052018 16 293 6.4 14.5 0.00 0.00 0.00 61 1011.9
20260505051018 15 315 6.4 12.9 0.00 0.00 0.00 61 1011.8
20260505041018 16 315 3.2 9.7 0.00 0.00 0.00 61 1009.8
20260505040038 16 315 3.2 8.0 0.00 0.00 0.00 60 1009.7
20260505035018 17 338 3.2 9.7 0.00 0.00 0.00 59 1009.2
20260505034018 17 0 6.4 17.7 0.00 0.00 0.00 58 1009.0
20260505033018 17 0 6.4 12.9 0.00 0.00 0.00 58 1008.9
20260505032019 17 0 6.4 14.5 0.00 0.00 0.00 57 1008.2
20260505031018 17 315 6.4 14.5 0.00 0.00 0.00 56 1008.1
20260505030018 18 338 8.0 19.3 0.00 0.00 0.00 55 1008.2
20260505025018 18 0 3.2 11.3 0.00 0.00 0.00 55 1007.2
20260505024018 18 315 6.4 14.5 0.00 0.00 0.00 55 1007.5
20260505023018 18 293 8.0 17.7 0.00 0.00 0.00 54 1007.2
20260505022018 19 315 11.3 25.7 0.00 0.00 0.00 54 1007.2
20260505021018 19 315 11.3 22.5 0.00 0.00 0.00 53 1007.2
20260505020038 19 293 9.7 20.9 0.00 0.00 0.00 54 1007.3
20260505015018 19 293 8.0 24.1 0.00 0.00 0.00 55 1007.1
20260505014038 18 293 6.4 11.3 0.00 0.00 0.00 54 1006.9
20260505013018 18 293 11.3 19.3 0.00 0.00 0.00 55 1007.2
20260505012038 18 315 9.7 24.1 0.00 0.00 0.00 54 1007.3
20260505011059 18 315 8.0 16.1 0.00 0.00 0.00 52 1007.3
20260505010018 19 315 11.3 25.7 0.00 0.00 0.00 50 1007.7
20260505005038 20 293 9.7 20.9 0.00 0.00 0.00 43 1007.9
20260505004018 20 315 12.9 29.0 0.00 0.00 0.00 45 1007.9
20260505003020 20 315 12.9 27.4 0.00 0.00 0.00 43 1008.0
20260505002018 21 315 11.3 22.5 0.00 0.00 0.00 43 1008.2
20260505001019 22 315 12.9 22.5 0.00 0.00 0.00 40 1008.5
20260505000018 23 315 9.7 19.3 0.00 0.00 0.00 35 1008.4
20260504235018 22 293 9.7 20.9 0.00 0.00 0.00 35 1008.2
20260504234018 22 315 14.5 29.0 0.00 0.00 0.00 39 1008.7
20260504233018 22 315 11.3 29.0 0.00 0.00 0.00 40 1008.8
20260504232018 22 315 11.3 20.9 0.00 0.00 0.00 36 1009.0
20260504231038 22 315 9.7 19.3 0.00 0.00 0.00 36 1009.1
20260504230019 22 315 11.3 30.6 0.00 0.00 0.00 36 1009.0
20260504225018 22 338 12.9 30.6 0.00 0.00 0.00 33 1009.3